Terminal Aerodrome Forecast
Issued by NWS Boston, MA

Home | Current Version | Previous Version | Text Only | Print | Product List | Glossary On
Versions: 1 2 3 4 5 6 7 8 9 10 11 12 13 14 15 16 17 18 19 20 21 22 23 24 25 26 27 28 29 30 31 32 33 34 35 36 37 38 39 40 41 42 43 44 45 46 47 48
000
FTUS41 KBOX 221124
TAFPVD
TAF
KPVD 221124Z 2212/2312 00000KT 3SM BR OVC150
     FM221400 01004KT P6SM BKN130
     FM221800 04007KT P6SM OVC010
     FM230300 05012KT 6SM -DZ BR OVC008=

USA.gov is the U.S. government's official web portal to all federal, state and local government web resources and services.